Home > Weather > Rawalpindi > Past weeks

Flag for Pakistan Weather for the Past 2 Weeks in Rawalpindi, Pakistan

Now
59 °F

Haze.


Feels Like: 58 °F
Forecast: 42 / 66 °F
Wind: 7 mph from Northwest

Location: Islamabad Airport

Current Time: Feb 14, 2016 at 8:51:11 PM

Latest Report: Feb 14, 2016 at 8:00 PM


Visibility: 2 mi

Pressure: 30.07 "Hg (28.34 "Hg at 501m altitude)

Humidity: 59%

Dew point: 45 °F

Location of RawalpindiLocation

Historic Weather in Rawalpindi — Graph

°F

Rawalpindi Temperature Yesterday

Maximum temperature yesterday: 68 °F (at 3:00 PM)
Minimum temperature yesterday: 43 °F (at 2:00 AM)
Average temperature yesterday: 53 °F

High & Low Weather Summary for the Past Weeks

 TemperatureHumidityPressure
High84 °F (Feb 9, 6:00 PM)100% (Feb 1, 4:00 AM)30.24 "Hg (Feb 1, 4:00 AM)
Low41 °F (Jan 31, 6:00 AM)27% (Feb 5, 2:00 PM)29.80 "Hg (Feb 10, 5:00 PM)
Average55 °F67%30.03 "Hg
* Reported Jan 30 8:00 PM — Feb 14 8:00 PM, Rawalpindi, Weather by CustomWeather, © 2016

Note: Actual official high and low records may vary slightly from our data, if they occured in-between our weather recording intervals... More about our weather records

Advertising

Rawalpindi Weather History for the Previous 24 Hours

 ConditionsComfort  
Time TempWeatherWind HumidityBarometerVisibility
8:00 PM
Sun, Feb 14
59 °FHaze.7 mph59%30.07 "Hg2 mi
7:00 PM61 °FPassing clouds.9 mph55%30.07 "Hg4 mi
6:00 PM63 °FPassing clouds.12 mph52%30.07 "Hg4 mi
5:00 PM64 °FPassing clouds.12 mph49%30.07 "HgN/A
4:00 PM68 °FPassing clouds.12 mph40%30.04 "HgN/A
3:00 PM68 °FPassing clouds.12 mph40%30.07 "HgN/A
2:00 PM68 °FPassing clouds.9 mph40%30.09 "HgN/A
1:00 PM68 °FPassing clouds.12 mph43%30.24 "HgN/A
12:00 PM64 °FHaze.9 mph43%30.15 "Hg2 mi
11:00 AM59 °FHaze.No wind51%30.15 "Hg2 mi
10:30 AM55 °FHaze.No wind63%30.15 "Hg2 mi
10:00 AM55 °FHaze.No wind63%30.15 "Hg2 mi
9:00 AM50 °FHaze.No wind76%30.15 "Hg1 mi
8:00 AM45 °FFog.No wind81%30.12 "Hg1 mi
7:00 AM45 °FFog.No wind81%30.12 "Hg2 mi
6:00 AM45 °FFog.No wind81%30.09 "Hg2 mi
5:00 AM45 °FFog.No wind87%30.07 "Hg2 mi
4:00 AM46 °FFog.No wind82%30.09 "Hg2 mi
3:00 AM46 °FFog.No wind82%30.09 "Hg2 mi
2:00 AM46 °FFog.5 mph82%30.09 "Hg2 mi
1:00 AM48 °FHaze.5 mph76%30.09 "Hg2 mi
12:00 AM50 °FHaze.No wind76%30.09 "Hg2 mi
11:00 PM
Sat, Feb 13
52 °FHaze.5 mph77%30.09 "Hg2 mi
10:00 PM54 °FHaze.5 mph72%30.09 "Hg2 mi
9:00 PM55 °FHaze.5 mph67%30.09 "Hg2 mi
Weather by CustomWeather, © 2016

See weather overviewHow to use our weather pages